| time (UTC) | temp F | wind direction | speed MPH | gust MPH | rain 1hr in | rain 24hr in | rain mn in | humidity % | barometer mb |
| 20260502224004 | 54 | 136 | 3.0 | 8.0 | 0.00 | 0.00 | 0.00 | 56 | 1016.9 |
| 20260502223506 | 54 | 113 | 2.0 | 8.0 | 0.00 | 0.00 | 0.00 | 56 | 1016.9 |
| 20260502223014 | 54 | 184 | 3.0 | 7.0 | 0.00 | 0.00 | 0.00 | 56 | 1017.0 |
| 20260502222503 | 54 | 117 | 2.0 | 7.0 | 0.00 | 0.00 | 0.00 | 57 | 1017.0 |
| 20260502222004 | 55 | 124 | 3.0 | 8.0 | 0.00 | 0.00 | 0.00 | 57 | 1017.0 |
| 20260502221513 | 54 | 228 | 3.0 | 8.0 | 0.00 | 0.00 | 0.00 | 57 | 1017.0 |
| 20260502221004 | 54 | 122 | 4.0 | 8.0 | 0.00 | 0.00 | 0.00 | 57 | 1017.0 |
| 20260502220506 | 54 | 132 | 2.0 | 7.0 | 0.00 | 0.00 | 0.00 | 58 | 1017.0 |
| 20260502220020 | 54 | 141 | 2.0 | 7.0 | 0.00 | 0.00 | 0.00 | 58 | 1017.1 |
| 20260502215510 | 54 | 108 | 2.0 | 7.0 | 0.00 | 0.00 | 0.00 | 58 | 1017.2 |
| 20260502215007 | 54 | 125 | 3.0 | 7.0 | 0.00 | 0.00 | 0.00 | 58 | 1017.1 |
| 20260502214523 | 54 | 330 | 2.0 | 7.0 | 0.00 | 0.00 | 0.00 | 58 | 1017.2 |
| 20260502214009 | 54 | 335 | 2.0 | 9.0 | 0.00 | 0.00 | 0.00 | 58 | 1017.2 |
| 20260502213508 | 54 | 182 | 2.0 | 9.0 | 0.00 | 0.00 | 0.00 | 58 | 1017.2 |
| 20260502213004 | 54 | 72 | 2.0 | 7.0 | 0.00 | 0.00 | 0.00 | 58 | 1017.2 |
| 20260502212504 | 54 | 147 | 2.0 | 8.0 | 0.00 | 0.00 | 0.00 | 59 | 1017.2 |
| 20260502212007 | 55 | 159 | 2.0 | 11.0 | 0.00 | 0.00 | 0.00 | 58 | 1017.1 |
| 20260502211516 | 55 | 121 | 3.0 | 11.0 | 0.00 | 0.00 | 0.00 | 58 | 1017.1 |
| 20260502211003 | 55 | 156 | 4.0 | 9.0 | 0.00 | 0.00 | 0.00 | 58 | 1017.1 |
| 20260502210510 | 55 | 89 | 3.0 | 8.0 | 0.00 | 0.00 | 0.00 | 58 | 1017.1 |
| 20260502210015 | 55 | 183 | 4.0 | 10.0 | 0.00 | 0.00 | 0.00 | 58 | 1017.0 |
| 20260502205506 | 55 | 320 | 3.0 | 10.0 | 0.00 | 0.00 | 0.00 | 59 | 1017.1 |
| 20260502205007 | 54 | 204 | 3.0 | 7.0 | 0.00 | 0.00 | 0.00 | 59 | 1017.1 |
| 20260502204518 | 55 | 52 | 1.0 | 5.0 | 0.00 | 0.00 | 0.00 | 59 | 1017.2 |
| 20260502204009 | 55 | 105 | 0.0 | 5.0 | 0.00 | 0.00 | 0.00 | 59 | 1017.2 |
| 20260502203507 | 55 | 304 | 1.0 | 4.0 | 0.00 | 0.00 | 0.00 | 59 | 1017.3 |
| 20260502203026 | 55 | 169 | 1.0 | 5.0 | 0.00 | 0.00 | 0.00 | 59 | 1017.2 |
| 20260502202510 | 55 | 49 | 2.0 | 5.0 | 0.00 | 0.00 | 0.00 | 58 | 1017.4 |
| 20260502202010 | 55 | 299 | 1.0 | 5.0 | 0.00 | 0.00 | 0.00 | 58 | 1017.4 |
| 20260502201527 | 55 | 162 | 1.0 | 5.0 | 0.00 | 0.00 | 0.00 | 58 | 1017.4 |
| 20260502201006 | 55 | 340 | 1.0 | 5.0 | 0.00 | 0.00 | 0.00 | 58 | 1017.4 |
| 20260502200503 | 55 | 96 | 1.0 | 6.0 | 0.00 | 0.00 | 0.00 | 58 | 1017.4 |
| 20260502200011 | 55 | 171 | 2.0 | 7.0 | 0.00 | 0.00 | 0.00 | 57 | 1017.3 |
| 20260502195502 | 55 | 49 | 2.0 | 7.0 | 0.00 | 0.00 | 0.00 | 57 | 1017.2 |
| 20260502195003 | 56 | 171 | 3.0 | 9.0 | 0.00 | 0.00 | 0.00 | 57 | 1017.2 |
| 20260502194515 | 56 | 169 | 3.0 | 9.0 | 0.00 | 0.00 | 0.00 | 57 | 1017.2 |
| 20260502194008 | 56 | 159 | 2.0 | 9.0 | 0.00 | 0.00 | 0.00 | 57 | 1017.2 |
| 20260502193507 | 56 | 158 | 2.0 | 6.0 | 0.00 | 0.00 | 0.00 | 56 | 1017.1 |
| 20260502193020 | 56 | 178 | 3.0 | 11.0 | 0.00 | 0.00 | 0.00 | 56 | 1017.2 |
| 20260502192506 | 56 | 122 | 5.0 | 12.0 | 0.00 | 0.00 | 0.00 | 55 | 1017.2 |
| 20260502192008 | 56 | 172 | 5.0 | 12.0 | 0.00 | 0.00 | 0.00 | 55 | 1017.2 |
| 20260502191523 | 56 | 56 | 4.0 | 13.0 | 0.00 | 0.00 | 0.00 | 55 | 1017.2 |
| 20260502191009 | 57 | 137 | 5.0 | 13.0 | 0.00 | 0.00 | 0.00 | 54 | 1017.2 |
| 20260502190510 | 57 | 89 | 5.0 | 13.0 | 0.00 | 0.00 | 0.00 | 55 | 1017.2 |
| 20260502190027 | 57 | 155 | 3.0 | 8.0 | 0.00 | 0.00 | 0.00 | 55 | 1017.3 |
| 20260502185512 | 57 | 115 | 3.0 | 8.0 | 0.00 | 0.00 | 0.00 | 55 | 1017.3 |
| 20260502185003 | 57 | 125 | 4.0 | 10.0 | 0.00 | 0.00 | 0.00 | 54 | 1017.2 |
| 20260502184510 | 57 | 121 | 3.0 | 10.0 | 0.00 | 0.00 | 0.00 | 54 | 1017.2 |
| 20260502184005 | 57 | 129 | 5.0 | 11.0 | 0.00 | 0.00 | 0.00 | 53 | 1017.2 |
| 20260502183507 | 58 | 220 | 3.0 | 11.0 | 0.00 | 0.00 | 0.00 | 53 | 1017.2 |
| 20260502183016 | 58 | 162 | 3.0 | 10.0 | 0.00 | 0.00 | 0.00 | 52 | 1017.2 |
| 20260502182509 | 58 | 122 | 2.0 | 11.0 | 0.00 | 0.00 | 0.00 | 51 | 1017.1 |
| 20260502182006 | 59 | 117 | 3.0 | 11.0 | 0.00 | 0.00 | 0.00 | 51 | 1017.3 |
| 20260502181531 | 59 | 229 | 3.0 | 9.0 | 0.00 | 0.00 | 0.00 | 51 | 1017.2 |
| 20260502181010 | 59 | 50 | 3.0 | 8.0 | 0.00 | 0.00 | 0.00 | 50 | 1017.3 |
| 20260502180512 | 60 | 132 | 3.0 | 8.0 | 0.00 | 0.00 | 0.00 | 49 | 1017.2 |
| 20260502170510 | 62 | 115 | 5.0 | 11.0 | 0.00 | 0.00 | 0.00 | 45 | 1017.3 |
| 20260502164003 | 62 | 196 | 4.0 | 9.0 | 0.00 | 0.00 | 0.00 | 44 | 1017.5 |
| 20260502163503 | 62 | 114 | 3.0 | 8.0 | 0.00 | 0.00 | 0.00 | 45 | 1017.5 |
| 20260502163012 | 62 | 129 | 3.0 | 12.0 | 0.00 | 0.00 | 0.00 | 45 | 1017.5 |
| 20260502162507 | 62 | 174 | 5.0 | 13.0 | 0.00 | 0.00 | 0.00 | 46 | 1017.6 |
| 20260502162010 | 62 | 193 | 5.0 | 13.0 | 0.00 | 0.00 | 0.00 | 44 | 1017.7 |
| 20260502161513 | 62 | 144 | 5.0 | 13.0 | 0.00 | 0.00 | 0.00 | 46 | 1017.7 |
| 20260502161009 | 62 | 122 | 5.0 | 14.0 | 0.00 | 0.00 | 0.00 | 48 | 1017.8 |
| 20260502160506 | 62 | 131 | 5.0 | 18.0 | 0.00 | 0.00 | 0.00 | 47 | 1017.9 |
| 20260502152006 | 61 | 99 | 3.0 | 10.0 | 0.00 | 0.00 | 0.00 | 48 | 1018.6 |
| 20260502151510 | 61 | 108 | 6.0 | 10.0 | 0.00 | 0.00 | 0.00 | 47 | 1018.7 |
| 20260502151005 | 61 | 108 | 3.0 | 10.0 | 0.00 | 0.00 | 0.00 | 49 | 1018.7 |
| 20260502150506 | 61 | 136 | 5.0 | 10.0 | 0.00 | 0.00 | 0.00 | 50 | 1018.8 |
| 20260502130503 | 65 | 153 | 3.0 | 12.0 | 0.00 | 0.00 | 0.00 | 45 | 1019.7 |
| 20260502123510 | 64 | 113 | 5.0 | 13.0 | 0.00 | 0.00 | 0.00 | 45 | 1019.9 |
| 20260502123018 | 64 | 141 | 3.0 | 13.0 | 0.00 | 0.00 | 0.00 | 47 | 1019.8 |
| 20260502122507 | 64 | 153 | 3.0 | 13.0 | 0.00 | 0.00 | 0.00 | 46 | 1019.9 |
| 20260502122009 | 64 | 150 | 2.0 | 8.0 | 0.00 | 0.00 | 0.00 | 46 | 1019.9 |
| 20260502121522 | 64 | 123 | 4.0 | 9.0 | 0.00 | 0.00 | 0.00 | 46 | 1019.9 |
| 20260502121008 | 64 | 111 | 2.0 | 12.0 | 0.00 | 0.00 | 0.00 | 46 | 1019.9 |
| 20260502120509 | 64 | 96 | 5.0 | 12.0 | 0.00 | 0.00 | 0.00 | 46 | 1020.1 |
| 20260502115503 | 64 | 158 | 3.0 | 8.0 | 0.00 | 0.00 | 0.00 | 46 | 1020.1 |
| 20260502115003 | 64 | 157 | 2.0 | 12.0 | 0.00 | 0.00 | 0.00 | 43 | 1020.2 |
| 20260502114513 | 64 | 6 | 4.0 | 13.0 | 0.00 | 0.00 | 0.00 | 45 | 1020.3 |
| 20260502114003 | 65 | 138 | 6.0 | 13.0 | 0.00 | 0.00 | 0.00 | 42 | 1020.1 |
| 20260502113503 | 65 | 116 | 6.0 | 12.0 | 0.00 | 0.00 | 0.00 | 43 | 1020.2 |
| 20260502113016 | 65 | 163 | 3.0 | 15.0 | 0.00 | 0.00 | 0.00 | 43 | 1020.1 |
| 20260502112503 | 65 | 142 | 6.0 | 15.0 | 0.00 | 0.00 | 0.00 | 42 | 1020.2 |
| 20260502112012 | 66 | 165 | 3.0 | 12.0 | 0.00 | 0.00 | 0.00 | 42 | 1020.5 |
| 20260502111520 | 64 | 109 | 5.0 | 12.0 | 0.00 | 0.00 | 0.00 | 45 | 1020.3 |
| 20260502111007 | 63 | 187 | 4.0 | 10.0 | 0.00 | 0.00 | 0.00 | 43 | 1020.4 |
| 20260502110508 | 63 | 127 | 4.0 | 13.0 | 0.00 | 0.00 | 0.00 | 45 | 1020.4 |
| 20260502110025 | 63 | 124 | 5.0 | 13.0 | 0.00 | 0.00 | 0.00 | 42 | 1020.5 |
| 20260502105515 | 63 | 144 | 4.0 | 10.0 | 0.00 | 0.00 | 0.00 | 42 | 1020.5 |
| 20260502105011 | 63 | 231 | 4.0 | 12.0 | 0.00 | 0.00 | 0.00 | 42 | 1020.5 |
| 20260502104534 | 63 | 39 | 6.0 | 14.0 | 0.00 | 0.00 | 0.00 | 41 | 1020.5 |
| 20260502104003 | 63 | 89 | 7.0 | 14.0 | 0.00 | 0.00 | 0.00 | 40 | 1020.6 |
| 20260502103504 | 63 | 302 | 3.0 | 10.0 | 0.00 | 0.00 | 0.00 | 42 | 1020.7 |
| 20260502103013 | 62 | 278 | 3.0 | 11.0 | 0.00 | 0.00 | 0.00 | 41 | 1020.9 |
| 20260502102507 | 62 | 240 | 4.0 | 11.0 | 0.00 | 0.00 | 0.00 | 40 | 1020.7 |
| 20260502102007 | 62 | 116 | 5.0 | 11.0 | 0.00 | 0.00 | 0.00 | 40 | 1020.8 |
| 20260502101514 | 62 | 65 | 5.0 | 11.0 | 0.00 | 0.00 | 0.00 | 39 | 1020.8 |
| 20260502101007 | 62 | 98 | 4.0 | 9.0 | 0.00 | 0.00 | 0.00 | 41 | 1021.0 |
| 20260502100506 | 62 | 287 | 2.0 | 11.0 | 0.00 | 0.00 | 0.00 | 43 | 1021.0 |
| 20260502091514 | 61 | 359 | 3.0 | 10.0 | 0.00 | 0.00 | 0.00 | 38 | 1021.4 |
| 20260502091006 | 61 | 127 | 3.0 | 16.0 | 0.00 | 0.00 | 0.00 | 38 | 1021.5 |
| 20260502090506 | 61 | 169 | 2.0 | 16.0 | 0.00 | 0.00 | 0.00 | 36 | 1021.3 |
| 20260502071504 | 58 | 262 | 1.0 | 7.0 | 0.00 | 0.00 | 0.00 | 41 | 1021.3 |
| 20260502071004 | 58 | 105 | 1.0 | 6.0 | 0.00 | 0.00 | 0.00 | 40 | 1021.3 |
| 20260502070504 | 57 | 111 | 1.0 | 7.0 | 0.00 | 0.00 | 0.00 | 40 | 1021.2 |
| 20260502070003 | 57 | 318 | 2.0 | 7.0 | 0.00 | 0.00 | 0.00 | 39 | 1021.1 |
| 20260502065502 | 57 | 168 | 1.0 | 6.0 | 0.00 | 0.00 | 0.00 | 39 | 1021.2 |
| 20260502065003 | 58 | 327 | 2.0 | 6.0 | 0.00 | 0.00 | 0.00 | 38 | 1021.1 |
| 20260502064505 | 58 | 89 | 1.0 | 5.0 | 0.00 | 0.00 | 0.00 | 37 | 1021.1 |
| 20260502064002 | 58 | 295 | 1.0 | 5.0 | 0.00 | 0.00 | 0.00 | 37 | 1021.2 |
| 20260502063502 | 57 | 353 | 1.0 | 6.0 | 0.00 | 0.00 | 0.00 | 36 | 1021.3 |
| 20260502063007 | 57 | 49 | 1.0 | 6.0 | 0.00 | 0.00 | 0.00 | 36 | 1021.3 |
| 20260502062503 | 57 | 180 | 1.0 | 5.0 | 0.00 | 0.00 | 0.00 | 34 | 1021.2 |
| 20260502062006 | 57 | 210 | 1.0 | 4.0 | 0.00 | 0.00 | 0.00 | 34 | 1021.2 |
| 20260502061504 | 57 | 354 | 1.0 | 5.0 | 0.00 | 0.00 | 0.00 | 33 | 1021.2 |
| 20260502061004 | 57 | 288 | 1.0 | 5.0 | 0.00 | 0.00 | 0.00 | 33 | 1021.1 |
| 20260502060503 | 56 | 283 | 1.0 | 5.0 | 0.00 | 0.00 | 0.00 | 36 | 1021.1 |
| 20260502060005 | 56 | 285 | 1.0 | 5.0 | 0.00 | 0.00 | 0.00 | 35 | 1021.1 |
| 20260502055503 | 56 | 262 | 1.0 | 5.0 | 0.00 | 0.00 | 0.00 | 36 | 1021.0 |
| 20260502055003 | 55 | 255 | 1.0 | 5.0 | 0.00 | 0.00 | 0.00 | 34 | 1021.0 |
| 20260502054507 | 55 | 166 | 1.0 | 4.0 | 0.00 | 0.00 | 0.00 | 37 | 1021.0 |
| 20260502054002 | 56 | 241 | 0.0 | 4.0 | 0.00 | 0.00 | 0.00 | 34 | 1020.9 |
| 20260502053503 | 56 | 293 | 1.0 | 5.0 | 0.00 | 0.00 | 0.00 | 33 | 1020.9 |
| 20260502053005 | 56 | 262 | 1.0 | 5.0 | 0.00 | 0.00 | 0.00 | 32 | 1020.8 |
| 20260502052506 | 56 | 221 | 1.0 | 5.0 | 0.00 | 0.00 | 0.00 | 31 | 1020.8 |
| 20260502052004 | 56 | 285 | 1.0 | 6.0 | 0.00 | 0.00 | 0.00 | 31 | 1020.8 |
| 20260502051520 | 56 | 151 | 1.0 | 6.0 | 0.00 | 0.00 | 0.00 | 32 | 1020.8 |
| 20260502051003 | 55 | 236 | 1.0 | 5.0 | 0.00 | 0.00 | 0.00 | 32 | 1020.8 |
| 20260502050503 | 55 | 260 | 1.0 | 5.0 | 0.00 | 0.00 | 0.00 | 33 | 1020.7 |
| 20260502050007 | 55 | 127 | 0.0 | 5.0 | 0.00 | 0.00 | 0.00 | 34 | 1020.7 |
| 20260502045503 | 55 | 250 | 1.0 | 7.0 | 0.00 | 0.00 | 0.00 | 34 | 1020.6 |
| 20260502045007 | 55 | 247 | 2.0 | 7.0 | 0.00 | 0.00 | 0.00 | 33 | 1020.7 |
| 20260502044507 | 55 | 256 | 1.0 | 5.0 | 0.00 | 0.00 | 0.00 | 34 | 1020.7 |
| 20260502044005 | 55 | 245 | 1.0 | 5.0 | 0.00 | 0.00 | 0.00 | 35 | 1020.7 |
| 20260502043503 | 55 | 274 | 1.0 | 6.0 | 0.00 | 0.00 | 0.00 | 34 | 1020.8 |
| 20260502043014 | 55 | 134 | 2.0 | 6.0 | 0.00 | 0.00 | 0.00 | 33 | 1020.7 |
| 20260502042503 | 55 | 104 | 1.0 | 5.0 | 0.00 | 0.00 | 0.00 | 34 | 1020.7 |
| 20260502042006 | 55 | 10 | 1.0 | 5.0 | 0.00 | 0.00 | 0.00 | 33 | 1020.8 |
| 20260502041509 | 55 | 270 | 1.0 | 5.0 | 0.00 | 0.00 | 0.00 | 33 | 1020.8 |
| 20260502041003 | 55 | 259 | 2.0 | 5.0 | 0.00 | 0.00 | 0.00 | 33 | 1020.9 |
| 20260502040505 | 55 | 313 | 1.0 | 4.0 | 0.00 | 0.00 | 0.00 | 33 | 1021.0 |
| 20260502040011 | 55 | 157 | 1.0 | 4.0 | 0.00 | 0.00 | 0.00 | 32 | 1020.9 |
| 20260502035504 | 55 | 60 | 1.0 | 5.0 | 0.00 | 0.00 | 0.00 | 31 | 1020.9 |
| 20260502035009 | 55 | 311 | 2.0 | 5.0 | 0.00 | 0.00 | 0.00 | 31 | 1021.0 |
| 20260502034508 | 55 | 282 | 1.0 | 5.0 | 0.00 | 0.00 | 0.00 | 31 | 1021.0 |
| 20260502034003 | 55 | 240 | 1.0 | 5.0 | 0.00 | 0.00 | 0.00 | 30 | 1021.1 |
| 20260502033504 | 55 | 248 | 1.0 | 5.0 | 0.00 | 0.00 | 0.00 | 30 | 1021.1 |
| 20260502033012 | 56 | 161 | 1.0 | 5.0 | 0.00 | 0.00 | 0.00 | 29 | 1021.1 |
| 20260502032504 | 56 | 23 | 1.0 | 5.0 | 0.00 | 0.00 | 0.00 | 29 | 1021.2 |
| 20260502032007 | 56 | 128 | 1.0 | 4.0 | 0.00 | 0.00 | 0.00 | 28 | 1021.3 |
| 20260502031514 | 56 | 216 | 1.0 | 4.0 | 0.00 | 0.00 | 0.00 | 28 | 1021.3 |
| 20260502031003 | 56 | 290 | 0.0 | 5.0 | 0.00 | 0.00 | 0.00 | 28 | 1021.3 |
| 20260502030507 | 57 | 252 | 1.0 | 6.0 | 0.00 | 0.00 | 0.00 | 26 | 1021.4 |
| 20260502030013 | 57 | 337 | 2.0 | 6.0 | 0.00 | 0.00 | 0.00 | 26 | 1021.4 |
| 20260502025504 | 56 | 258 | 2.0 | 5.0 | 0.00 | 0.00 | 0.00 | 26 | 1021.5 |
| 20260502025003 | 56 | 250 | 1.0 | 4.0 | 0.00 | 0.00 | 0.00 | 28 | 1021.5 |
| 20260502024531 | 56 | 121 | 2.0 | 5.0 | 0.00 | 0.00 | 0.00 | 26 | 1021.4 |
| 20260502024005 | 56 | 262 | 1.0 | 5.0 | 0.00 | 0.00 | 0.00 | 27 | 1021.3 |
| 20260502023507 | 56 | 95 | 0.0 | 4.0 | 0.00 | 0.00 | 0.00 | 29 | 1021.5 |
| 20260502023013 | 55 | 283 | 1.0 | 3.0 | 0.00 | 0.00 | 0.00 | 28 | 1021.4 |
| 20260502022506 | 55 | 277 | 1.0 | 3.0 | 0.00 | 0.00 | 0.00 | 29 | 1021.5 |
| 20260502022004 | 55 | 71 | 1.0 | 3.0 | 0.00 | 0.00 | 0.00 | 30 | 1021.4 |
| 20260502021516 | 54 | 93 | 0.0 | 2.0 | 0.00 | 0.00 | 0.00 | 31 | 1021.5 |
| 20260502021006 | 54 | 142 | 0.0 | 3.0 | 0.00 | 0.00 | 0.00 | 36 | 1021.5 |
| 20260502020506 | 54 | 267 | 0.0 | 3.0 | 0.00 | 0.00 | 0.00 | 33 | 1021.6 |
| 20260502020016 | 53 | 165 | 0.0 | 2.0 | 0.00 | 0.00 | 0.00 | 39 | 1021.6 |
| 20260502015508 | 52 | 167 | 0.0 | 2.0 | 0.00 | 0.00 | 0.00 | 38 | 1021.7 |
| 20260502015006 | 53 | 152 | 0.0 | 1.0 | 0.00 | 0.00 | 0.00 | 37 | 1021.7 |
| 20260502014525 | 52 | 164 | 0.0 | 1.0 | 0.00 | 0.00 | 0.00 | 38 | 1021.8 |
| 20260502014006 | 52 | 103 | 0.0 | 1.0 | 0.00 | 0.00 | 0.00 | 44 | 1021.8 |
| 20260502013504 | 52 | 188 | 0.0 | 1.0 | 0.00 | 0.00 | 0.00 | 55 | 1021.8 |
| 20260502013014 | 52 | 288 | 0.0 | 1.0 | 0.00 | 0.00 | 0.00 | 41 | 1021.9 |
| 20260502012507 | 52 | 278 | 0.0 | 1.0 | 0.00 | 0.00 | 0.00 | 42 | 1021.9 |
| 20260502012007 | 51 | 255 | 0.0 | 1.0 | 0.00 | 0.02 | 0.00 | 61 | 1022.0 |
| 20260502011517 | 50 | 189 | 0.0 | 1.0 | 0.00 | 0.02 | 0.00 | 58 | 1022.0 |
| 20260502011007 | 51 | 162 | 0.0 | 1.0 | 0.00 | 0.03 | 0.00 | 55 | 1022.1 |
| 20260502010503 | 51 | 141 | 0.0 | 1.0 | 0.00 | 0.03 | 0.00 | 57 | 1022.1 |
| 20260502010015 | 52 | 238 | 0.0 | 2.0 | 0.00 | 0.03 | 0.00 | 58 | 1022.1 |
| 20260502005504 | 53 | 155 | 0.0 | 2.0 | 0.00 | 0.03 | 0.00 | 53 | 1022.2 |
| 20260502005008 | 53 | 288 | 1.0 | 2.0 | 0.00 | 0.03 | 0.00 | 51 | 1022.2 |
| 20260502004516 | 53 | 261 | 0.0 | 1.0 | 0.00 | 0.03 | 0.00 | 41 | 1022.2 |
| 20260502004010 | 53 | 272 | 0.0 | 1.0 | 0.00 | 0.03 | 0.00 | 43 | 1022.2 |
| 20260502003508 | 52 | 276 | 0.0 | 1.0 | 0.00 | 0.03 | 0.00 | 60 | 1022.3 |
| 20260502003026 | 52 | 151 | 0.0 | 1.0 | 0.00 | 0.03 | 0.00 | 45 | 1022.4 |
| 20260502002506 | 52 | 311 | 0.0 | 1.0 | 0.00 | 0.03 | 0.00 | 60 | 1022.4 |
| 20260502002010 | 52 | 273 | 0.0 | 1.0 | 0.00 | 0.03 | 0.00 | 57 | 1022.5 |
| 20260502001522 | 52 | 294 | 0.0 | 1.0 | 0.00 | 0.03 | 0.00 | 49 | 1022.6 |
| 20260502001004 | 51 | 302 | 0.0 | 0.0 | 0.00 | 0.03 | 0.00 | 60 | 1022.7 |
| 20260502000503 | 51 | 309 | 0.0 | 2.0 | 0.00 | 0.03 | 0.00 | 60 | 1022.8 |
| 20260502000011 | 51 | 309 | 0.0 | 2.0 | 0.00 | 0.03 | 0.00 | 60 | 1022.9 |
| 20260501235509 | 51 | 323 | 1.0 | 2.0 | 0.00 | 0.03 | 0.00 | 61 | 1023.0 |
| 20260501235007 | 51 | 308 | 0.0 | 2.0 | 0.00 | 0.03 | 0.00 | 61 | 1023.0 |
| 20260501234518 | 52 | 309 | 1.0 | 2.0 | 0.00 | 0.03 | 0.00 | 60 | 1022.9 |
| 20260501234008 | 52 | 301 | 0.0 | 1.0 | 0.00 | 0.03 | 0.00 | 55 | 1023.0 |
| 20260501233507 | 52 | 304 | 0.0 | 1.0 | 0.00 | 0.03 | 0.00 | 54 | 1023.0 |
| 20260501233003 | 52 | 304 | 0.0 | 1.0 | 0.00 | 0.03 | 0.00 | 55 | 1023.0 |
| 20260501232503 | 52 | 314 | 0.0 | 2.0 | 0.00 | 0.03 | 0.00 | 54 | 1023.0 |
| 20260501232003 | 52 | 316 | 0.0 | 2.0 | 0.00 | 0.03 | 0.00 | 54 | 1023.0 |
| 20260501231509 | 53 | 302 | 0.0 | 2.0 | 0.00 | 0.03 | 0.00 | 54 | 1023.1 |
| 20260501231004 | 53 | 323 | 0.0 | 2.0 | 0.00 | 0.03 | 0.00 | 53 | 1023.1 |
| 20260501230506 | 53 | 324 | 0.0 | 2.0 | 0.00 | 0.03 | 0.00 | 51 | 1023.1 |
| 20260501230007 | 53 | 285 | 0.0 | 1.0 | 0.00 | 0.03 | 0.00 | 51 | 1023.1 |
| 20260501225505 | 54 | 291 | 0.0 | 2.0 | 0.00 | 0.03 | 0.00 | 49 | 1023.2 |
| 20260501225002 | 54 | 296 | 0.0 | 2.0 | 0.00 | 0.03 | 0.00 | 48 | 1023.2 |
| 20260501224515 | 54 | 276 | 0.0 | 1.0 | 0.00 | 0.03 | 0.00 | 48 | 1023.2 |